BLUEBIRD B

Last updated on Fri Sep 13 2024 00:02:05 GMT+0000 (Coordinated Universal Time)

1 61046U 24163B 24256.78878744 -.00000319 00000+0 00000+0 0 9997 2 61046 52.9798 19.9320 0012195 325.3361 189.3810 15.17231775 58
UTC large
Height (km)
Speed (km/s)
/
Latitude / Longitude
Inclination (degrees)
Orbital Period (minutes)
Azimuth
Elevation
Range (km)
Doppler Factor

Next 0 passes for location: London (51.5072 / 0.1276)

Sorry there are no passes over London.